Location: Newark
(41.0400°S, 62.7845°W)
Time: 23:14:31
(UTC+00:00)

Vanguard 2 - Pass Details

Date: 07 December 2021
Orbit: 554 x 2935 km, 32.9° (Epoch: 27 January)

Event Time Altitude Azimuth Distance (km) Brightness Sun altitude
Rises 07:46:40 0° 267° (W) 6,731 11.9 -7.8°
Reaches altitude 10° 07:51:35 10° 270° (W) 5,567 11.4 -7.1°
Maximum altitude 08:06:40 50° 338° (NNW) 2,585 9.9 -4.9°
Drops below altitude 10° 08:16:31 10° 50° (NE) 3,730 11.3 -3.3°
Sets 08:19:09 0° 55° (NE) 4,431 11.7 -2.9°
